Regional Weather Roundup
Issued by NWS Little Rock, AR

Home | Current Version | Previous Version | Graphics & Text | Print | Product List | Glossary On
Versions: 1 2 3 4 5 6 7 8 9 10 11 12 13 14 15 16 17 18 19 20 21 22 23 24 25 26 27 28 29 30 31 32
000
ASUS44 KLZK 270405
RWRLZK

WEATHER ROUNDUP FOR ARKANSAS
NATIONAL WEATHER SERVICE LITTLE ROCK AR
1100 PM CDT SAT MAY 26 2018

NOTE: "FAIR" INDICATES FEW OR NO CLOUDS BELOW 12,000 FEET WITH NO
SIGNIFICANT WEATHER AND/OR OBSTRUCTIONS TO VISIBILITY.

ARZ001-003-010-029-270500-
NORTHWEST ARKANSAS

CITY           SKY/WX    TMP DP  RH WIND       PRES   REMARKS
FAYETTEVILLE   CLEAR     70  68  93 CALM      29.90R
FORT SMITH     CLEAR     79  70  74 E6        29.84R
HARRISON       CLEAR     72  69  90 CALM      29.91R
BENTONVILLE    CLEAR     77  66  68 CALM      29.91R
ROGERS         CLEAR     74  66  76 SE7       29.91R
SILOAM SPGS    CLEAR     76  69  79 SE5       29.89R
HIGHFILL       CLEAR     73  66  78 CALM      29.90R
$$

ARZ004-005-016-270500-
NORTH CENTRAL ARKANSAS

CITY           SKY/WX    TMP DP  RH WIND       PRES   REMARKS
BATESVILLE     CLEAR     74  72  93 CALM      29.87S
FLIPPIN        CLEAR     72  71  97 CALM      29.88R
MTN HOME       CLEAR     74  69  85 S5        29.88R
$$

ARZ040-041-270500-
WEST CENTRAL ARKANSAS

CITY           SKY/WX    TMP DP  RH WIND       PRES   REMARKS
MENA           CLEAR     73  72  94 CALM      29.90R
MOUNT IDA      CLEAR     71  71 100 CALM      29.87R
$$

ARZ009-017-025-026-028-270500-
NORTHEAST ARKANSAS

CITY           SKY/WX    TMP DP  RH WIND       PRES   REMARKS
CORNING        FAIR      77  77 100 SW6       29.86S
JONESBORO      FAIR      76  74  93 CALM      29.87R
NEWPORT        FAIR      78  71  79 SW5       29.87R
WALNUT RIDGE     N/A     79  74  84 CALM      29.86S
BLYTHEVILLE    FAIR      78  70  76 S3        29.87R
$$

ARZ022-023-033-042-044-270500-
CENTRAL ARKANSAS

CITY           SKY/WX    TMP DP  RH WIND       PRES   REMARKS
LITTLE ROCK    FAIR      74  72  93 S6        29.86R
N LITTLE ROCK    N/A     76  71  87 E6        29.82S
JACKSONVILLE   PTCLDY    74  74 100 CALM      29.86R
CONWAY           N/A     75  73  94 S5        29.85R
SEARCY         FAIR      74  74 100 CALM      29.87S
HOT SPRINGS    CLEAR     73  72  96 NW5       29.88R
RUSSELLVILLE   CLEAR     72  71  97 W3        29.86R
CLINTON        FAIR      70  70 100 CALM      29.87S
$$

ARZ036-270500-
EAST ARKANSAS

CITY           SKY/WX    TMP DP  RH WIND       PRES   REMARKS
WEST MEMPHIS   FAIR      75  73  93 S3        29.87R
$$

ARZ050-053-066-070-073-270500-
SOUTHWEST ARKANSAS

CITY           SKY/WX    TMP DP  RH WIND       PRES   REMARKS
ARKADELPHIA    MOCLDY    74  72  93 CALM      29.87R
CAMDEN         FAIR      73  66  78 S5        29.85S
TEXARKANA      CLEAR     76  71  85 CALM      29.84R
EL DORADO      MOCLDY    72  71  97 SE5       29.86S
DE QUEEN       CLEAR     76  71  85 E5        29.84R
$$

ARZ056-057-069-270500-
SOUTHEAST ARKANSAS

CITY           SKY/WX    TMP DP  RH WIND       PRES   REMARKS
PINE BLUFF     FAIR      73  68  84 SE6       29.87R
STUTTGART      FAIR      78  74  87 S9        29.87R

$$






USA.gov is the U.S. government's official web portal to all federal, state and local government web resources and services.